Hauptseite
METAR-TAF:

METAR-TAF

Flughäfen :

Flughafen Sitten

Sion, Schweiz

Breite: 46-13N, Länge: 007-20E, Höhe: 482 m

Beobachtung

Neuester Wetterbericht von vor 13 Minuten, um 19:20 UTC
Wind 1 kt aus unterschiedlichen Richtungen
Temperatur 11°C
Luftfeuchtigkeit 76%
Luftdruck 1021 hPa
Sichtweite 10 km oder mehr
keine Wolken unter 1500 m und keine Kumulonimbus oder Gewitterwolken

METAR: LSGS 211920Z AUTO VRB01KT CAVOK 11/07 Q1021

Zeit: 21:33 (19:33 UTC)

Prognose

Neuester Wetterbericht von vor 5 Stunden und 8 Minuten, um 14:25 UTC
Gültige Prognose vom 21 um 15 UTC bis 21 um 24 UTC
Wind 3 kt aus unterschiedlichen Richtungen
Sichtweite 10 km oder mehr
keine Wolken unter 1500 m und keine Kumulonimbus oder Gewitterwolken

TAF: LSGS 211425Z 2115/2124 VRB03KT CAVOK

Wetterbeobachtungen und Prognosen von mehr als 4000 Flughäfen (METAR und TAF Bericht).

Die verfügbaren Stationen werden durch gelbe und rote Markierungen auf der Karte dargestellt.

Führen Sie die Maus auf sie, um den Namen der Station zu sehen.

Darauf klicken, um die Beobachtung von Wetterbeobachtungen und Prognosen zu sehen.

Um die Karte zu ändern : klicken Sie auf den grünen Tasten mit einem schwarzen Kreuz Zum Vergrößern, auf den grünen Button mit einem Gedankenstrich zu verkleinern, oder auf die grünen Pfeile für benachbarte Karten.


METAR-TAF: